{"data":{"norad_id":58845,"epoch":"2026-05-25T03:39:15.220800Z","epoch_age_seconds":61589,"freshness":"FRESH","line1":"1 58845U 24017V   26145.15225950  .00000963  00000+0  44662-4 0  9994","line2":"2 58845  53.1606 298.7391 0001190  94.4565 265.6571 15.30190001130484","mean_motion":15.30190001,"eccentricity":0.000119,"inclination_deg":53.1606,"raan_deg":298.7391,"arg_perigee_deg":94.4565,"mean_anomaly_deg":265.6571,"bstar":4.4662e-5,"rev_number":13048,"period_min":94.105960636192,"perigee_km":474.42937234452,"apogee_km":476.06047724262,"semimajor_km":6853.3819247936,"source":"CELESTRAK","updated_at":"2026-05-25T13:38:18.756577Z"}}